When you browse on this site, cookies collect data to enhance your experience and personalize the content and advertising you see.
Visit our Privacy Policy to learn more. By continuing to use the site, you agree to this use of cookies and data.
  • In United Kingdom
  • List of Countries
  • For 7 days
  • Water Temperature
  • Weather Map
  • Weather Widgets
  • user-avatar
    Login

    Hourly Weather Banbury

    Today, 1 June, Monday

    Time Temperature Precipitation Wind Pressure Humidity
    00:00 +7°C° 0 mm 4 mps 757 mmHg 90%
    01:00 +8°C° 0 mm 3 mps 757 mmHg 92%
    02:00 +7°C° 0 mm 3 mps 757 mmHg 93%
    03:00 +7°C° 0 mm 3 mps 756 mmHg 95%
    04:00 +8°C° 0 mm 3 mps 757 mmHg 94%
    05:00 +8°C° 0 mm 4 mps 757 mmHg 92%
    06:00 +11°C° 0 mm 4 mps 757 mmHg 91%
    07:00 +13°C° 0 mm 4 mps 757 mmHg 86%
    08:00 +15°C° 0 mm 4 mps 757 mmHg 81%
    09:00 +18°C° 0 mm 4 mps 757 mmHg 76%
    10:00 +19°C° 0 mm 4 mps 757 mmHg 73%
    11:00 +19°C° 0 mm 4 mps 757 mmHg 70%
    12:00 +20°C° 0 mm 4 mps 757 mmHg 64%
    13:00 +21°C° 0 mm 4 mps 756 mmHg 65%
    14:00 +21°C° 0 mm 4 mps 756 mmHg 66%
    15:00 +21°C° 0 mm 3 mps 756 mmHg 67%
    16:00 +20°C° 0.1 mm 3 mps 756 mmHg 72%
    17:00 +20°C° 0.1 mm 3 mps 756 mmHg 77%
    18:00 +19°C° 0.1 mm 3 mps 756 mmHg 81%
    19:00 +17°C° 0 mm 3 mps 756 mmHg 85%
    20:00 +14°C° 0 mm 3 mps 756 mmHg 89%
    21:00 +12°C° 0 mm 3 mps 757 mmHg 93%
    22:00 +12°C° 0 mm 3 mps 756 mmHg 93%
    23:00 +11°C° 0 mm 3 mps 756 mmHg 93%

    Tomorrow, 2 June, Tuesday

    Time Temperature Precipitation Wind Pressure Humidity
    00:00 +10°C° 0 mm 2 mps 756 mmHg 93%
    01:00 +9°C° 0 mm 2 mps 756 mmHg 92%
    02:00 +9°C° 0 mm 2 mps 756 mmHg 92%
    03:00 +8°C° 0 mm 2 mps 756 mmHg 92%
    04:00 +9°C° 0 mm 2 mps 756 mmHg 90%
    05:00 +9°C° 0 mm 2 mps 756 mmHg 88%
    06:00 +10°C° 0 mm 2 mps 756 mmHg 86%
    07:00 +13°C° 0 mm 2 mps 756 mmHg 80%
    08:00 +15°C° 0 mm 2 mps 755 mmHg 73%
    09:00 +17°C° 0 mm 2 mps 755 mmHg 66%
    10:00 +17°C° 0 mm 2 mps 755 mmHg 63%
    11:00 +18°C° 0 mm 2 mps 755 mmHg 60%
    12:00 +19°C° 0 mm 2 mps 755 mmHg 58%
    13:00 +20°C° 0 mm 2 mps 754 mmHg 57%
    14:00 +20°C° 0 mm 2 mps 753 mmHg 57%
    15:00 +20°C° 0 mm 2 mps 753 mmHg 56%
    16:00 +20°C° 0 mm 2 mps 752 mmHg 61%
    17:00 +20°C° 0 mm 2 mps 752 mmHg 66%
    18:00 +20°C° 0 mm 1 mps 751 mmHg 71%
    19:00 +18°C° 0 mm 1 mps 751 mmHg 74%
    20:00 +15°C° 0 mm 1 mps 751 mmHg 76%
    21:00 +13°C° 0 mm 1 mps 751 mmHg 78%
    22:00 +13°C° 0 mm 1 mps 750 mmHg 78%
    23:00 +13°C° 0 mm 1 mps 750 mmHg 78%

    Day after tomorrow, 3 June, Wednesday

    Time Temperature Precipitation Wind Pressure Humidity
    00:00 +13°C° 0 mm 2 mps 749 mmHg 79%
    01:00 +13°C° 0 mm 2 mps 749 mmHg 78%
    02:00 +13°C° 0 mm 2 mps 748 mmHg 78%
    03:00 +12°C° 0 mm 2 mps 747 mmHg 77%
    04:00 +13°C° 0 mm 2 mps 747 mmHg 78%
    05:00 +12°C° 0 mm 3 mps 747 mmHg 79%
    06:00 +12°C° 0 mm 3 mps 746 mmHg 80%
    07:00 +13°C° 0.2 mm 3 mps 746 mmHg 83%
    08:00 +13°C° 0.2 mm 3 mps 746 mmHg 87%
    09:00 +13°C° 0.2 mm 3 mps 746 mmHg 90%
    10:00 +12°C° 0.2 mm 3 mps 746 mmHg 90%
    11:00 +12°C° 0.2 mm 4 mps 746 mmHg 90%
    12:00 +12°C° 0.2 mm 5 mps 746 mmHg 91%
    13:00 +12°C° 0 mm 5 mps 746 mmHg 89%
    14:00 +12°C° 0 mm 5 mps 746 mmHg 88%
    15:00 +11°C° 0 mm 6 mps 746 mmHg 87%
    16:00 +12°C° 0 mm 5 mps 745 mmHg 86%
    17:00 +10°C° 0 mm 5 mps 745 mmHg 86%
    18:00 +11°C° 0 mm 4 mps 745 mmHg 85%
    19:00 +11°C° 0 mm 4 mps 745 mmHg 87%
    20:00 +10°C° 0 mm 3 mps 746 mmHg 88%
    21:00 +10°C° 0 mm 3 mps 746 mmHg 90%
    22:00 +9°C° 0 mm 3 mps 746 mmHg 90%
    23:00 +9°C° 0 mm 3 mps 746 mmHg 91%

    4 June, Thursday

    Time Temperature Precipitation Wind Pressure Humidity
    00:00 +9°C° 0 mm 3 mps 745 mmHg 92%
    01:00 +8°C° 0 mm 4 mps 745 mmHg 92%
    02:00 +8°C° 0 mm 4 mps 745 mmHg 93%
    03:00 +8°C° 0 mm 4 mps 744 mmHg 93%
    04:00 +8°C° 0 mm 5 mps 744 mmHg 90%
    05:00 +8°C° 0 mm 5 mps 744 mmHg 87%
    06:00 +8°C° 0 mm 5 mps 744 mmHg 84%
    07:00 +9°C° 0 mm 5 mps 744 mmHg 78%
    08:00 +10°C° 0 mm 5 mps 744 mmHg 71%
    09:00 +12°C° 0 mm 5 mps 744 mmHg 65%
    10:00 +12°C° 0.1 mm 5 mps 743 mmHg 66%
    11:00 +12°C° 0.1 mm 5 mps 743 mmHg 66%
    12:00 +12°C° 0.1 mm 5 mps 743 mmHg 67%
    13:00 +12°C° 0.1 mm 5 mps 742 mmHg 66%
    14:00 +13°C° 0.1 mm 5 mps 742 mmHg 65%
    15:00 +13°C° 0.1 mm 4 mps 742 mmHg 64%
    16:00 +13°C° 0.3 mm 4 mps 741 mmHg 70%
    17:00 +13°C° 0.3 mm 3 mps 741 mmHg 75%
    18:00 +12°C° 0.3 mm 3 mps 741 mmHg 81%
    19:00 +11°C° 0.3 mm 3 mps 741 mmHg 85%
    20:00 +10°C° 0.3 mm 3 mps 741 mmHg 89%
    21:00 +9°C° 0.3 mm 3 mps 741 mmHg 93%
    22:00 +8°C° 0.4 mm 2 mps 741 mmHg 93%
    23:00 +7°C° 0.4 mm 2 mps 741 mmHg 93%

    5 June, Friday

    Time Temperature Precipitation Wind Pressure Humidity
    00:00 +8°C° 0.4 mm 1 mps 741 mmHg 94%
    01:00 +6°C° 0 mm 2 mps 741 mmHg 93%
    02:00 +5°C° 0 mm 2 mps 741 mmHg 92%
    03:00 +4°C° 0 mm 2 mps 741 mmHg 91%
    04:00 +4°C° 0 mm 3 mps 741 mmHg 90%
    05:00 +5°C° 0 mm 3 mps 742 mmHg 89%
    06:00 +7°C° 0 mm 3 mps 742 mmHg 88%
    07:00 +7°C° 0 mm 4 mps 742 mmHg 80%
    08:00 +10°C° 0 mm 4 mps 742 mmHg 72%
    09:00 +12°C° 0 mm 5 mps 742 mmHg 64%
    10:00 +12°C° 0.1 mm 5 mps 742 mmHg 67%
    11:00 +13°C° 0.1 mm 5 mps 742 mmHg 70%
    12:00 +13°C° 0.1 mm 5 mps 741 mmHg 74%
    13:00 +13°C° 0.2 mm 5 mps 741 mmHg 73%
    14:00 +13°C° 0.2 mm 5 mps 741 mmHg 73%
    15:00 +13°C° 0.2 mm 5 mps 740 mmHg 73%
    16:00 +13°C° 0 mm 5 mps 740 mmHg 73%
    17:00 +12°C° 0 mm 5 mps 740 mmHg 73%
    18:00 +12°C° 0 mm 4 mps 740 mmHg 73%
    19:00 +11°C° 0.1 mm 4 mps 740 mmHg 78%
    20:00 +11°C° 0.1 mm 4 mps 740 mmHg 84%
    21:00 +10°C° 0.1 mm 3 mps 740 mmHg 89%
    22:00 +10°C° 0.1 mm 3 mps 740 mmHg 91%
    23:00 +10°C° 0.1 mm 3 mps 740 mmHg 94%

    6 June, Saturday

    Time Temperature Precipitation Wind Pressure Humidity
    00:00 +9°C° 0.1 mm 3 mps 739 mmHg 96%
    01:00 +8°C° 0.1 mm 4 mps 739 mmHg 96%
    02:00 +8°C° 0.1 mm 4 mps 739 mmHg 96%
    03:00 +7°C° 0.1 mm 4 mps 739 mmHg 96%
    04:00 +8°C° 0 mm 5 mps 740 mmHg 94%
    05:00 +8°C° 0 mm 5 mps 740 mmHg 93%
    06:00 +8°C° 0 mm 5 mps 740 mmHg 92%
    07:00 +9°C° 0.1 mm 6 mps 741 mmHg 86%
    08:00 +10°C° 0.1 mm 6 mps 741 mmHg 81%
    09:00 +11°C° 0.1 mm 7 mps 741 mmHg 75%
    10:00 +11°C° 0.1 mm 7 mps 741 mmHg 68%
    11:00 +12°C° 0.1 mm 7 mps 742 mmHg 62%
    12:00 +12°C° 0.1 mm 7 mps 742 mmHg 55%
    13:00 +12°C° 0.1 mm 7 mps 742 mmHg 56%
    14:00 +12°C° 0.1 mm 7 mps 742 mmHg 57%
    15:00 +12°C° 0.1 mm 7 mps 742 mmHg 58%
    16:00 +11°C° 0.2 mm 6 mps 742 mmHg 63%
    17:00 +10°C° 0.2 mm 6 mps 742 mmHg 68%
    18:00 +9°C° 0.2 mm 6 mps 742 mmHg 73%
    19:00 +8°C° 0 mm 5 mps 742 mmHg 75%
    20:00 +6°C° 0 mm 5 mps 743 mmHg 76%
    21:00 +5°C° 0 mm 4 mps 743 mmHg 78%
    22:00 +4°C° 0 mm 4 mps 743 mmHg 79%
    23:00 +3°C° 0 mm 5 mps 743 mmHg 80%
    Show more